{"data":{"norad_id":59658,"epoch":"2026-05-24T14:03:50.506272Z","epoch_age_seconds":117660,"freshness":"FRESH","line1":"1 59658U 24084E   26144.58600123  .00000629  00000+0  32386-4 0  9995","line2":"2 59658  43.0033 332.9094 0001226 276.7997  83.2715 15.27575362115989","mean_motion":15.27575362,"eccentricity":0.0001226,"inclination_deg":43.0033,"raan_deg":332.9094,"arg_perigee_deg":276.7997,"mean_anomaly_deg":83.2715,"bstar":3.2386e-5,"rev_number":11598,"period_min":94.267034924854,"perigee_km":482.22180079728,"apogee_km":483.90416703333,"semimajor_km":6861.1999839153,"source":"CELESTRAK","updated_at":"2026-05-25T13:38:19.018266Z"}}